CINOVEC Weather Reports


Display with metric or nautical units.
time (UTC)temp
F
wind
direction
speed
MPH
gust
MPH
rain 1hr
in
rain 24hr
in
rain mn
in
humidity
%
barometer
mb
20260901201928 57 240 6.0 0.0 0.00 0.00 0.00 76
20260901191928 55 220 5.0 0.0 0.00 0.00 0.00 76
20260901181728 57 190 2.0 0.0 0.00 0.00 0.00 76
20260901171928 61 240 5.0 0.0 0.00 0.00 0.00 67
20260901162030 63 250 9.0 0.0 0.00 0.00 0.00 59
20260901151728 63 230 10.0 17.0 0.00 0.00 0.00 59
20260901141928 64 230 12.0 20.0 0.00 0.00 0.00 55
20260901131828 64 220 10.0 0.0 0.00 0.00 0.00 59
20260901121728 61 240 10.0 20.0 0.00 0.00 0.00 67
20260901111828 57 250 12.0 21.0 0.00 0.00 0.00 76
20260901102030 57 240 10.0 20.0 0.00 0.00 0.00 76
20260901091728 55 260 9.0 20.0 0.00 0.00 0.00 82
20260901081929 54 260 8.0 17.0 0.00 0.00 0.00 87
20260901071929 54 240 13.0 22.0 0.00 0.00 0.00 87
20260901061728 52 240 12.0 20.0 0.00 0.00 0.00 93
20260901051827 52 230 12.0 0.0 0.00 0.00 0.00 93
20260901042031 52 230 13.0 21.0 0.00 0.00 0.00 93
20260901031727 52 230 12.0 20.0 0.00 0.00 0.00 93
20260901021928 52 240 13.0 23.0 0.00 0.00 0.00 93
20260901011930 52 250 13.0 20.0 0.00 0.00 0.00 87
20260901001728 52 260 12.0 23.0 0.00 0.00 0.00 87
20260831231844 54 240 14.0 29.0 0.00 0.00 0.00 76
20260831222032 55 220 14.0 24.0 0.00 0.00 0.00 76
20260831211728 57 230 15.0 23.0 0.00 0.00 0.00 76